Flag for U.S.A. Weather past 2 weeks in Germantown, Maryland, U.S.A.

Now
75 °F

Broken clouds.


Feels Like: 75 °F
Forecast: 65 / 77 °F
Wind: 8 mph from Southwest

Location: Frederick Municipal Airport

Current Time: Aug 1, 2014 at 12:51:03 PM

Latest Report: Aug 1, 2014 at 11:45 AM


Visibility: 10 mi

Pressure: 30.22 "Hg

Humidity: 89%

Dew point: 72 °F

Location of GermantownLocation

Historic Weather in Germantown — Graph

°F

Germantown temperature yesterday

Maximum temperature yesterday: 86 °F (at 3:55 PM)
Minimum temperature yesterday: 59 °F (at 5:15 AM)
Average temperature yesterday: 68 °F

Past Weeks' High & Low Weather Summary

 TemperatureHumidityPressure
High95 °F (Jul 23, 3:45 PM)100% (Jul 17, 9:40 PM)30.28 "Hg (Jul 17, 9:40 PM)
Low52 °F (Jul 30, 4:35 AM)39% (Jul 17, 5:50 PM)29.61 "Hg (Jul 28, 3:45 AM)
Average69 °F87%30.04 "Hg
* Reported Jul 17 12:45 PM — Aug 1 11:45 AM, Germantown, Weather by CustomWeather, © 2014

Note: Actual official high and low records may vary slightly from our data, if they occured in-between our weather recording intervals... More about our weather records

Advertising

Germantown weather history for previous 24 hours

 ConditionsComfort  
Time TempWeatherWind HumidityBarometerVisibility
11:45 AM
Aug 1
75 °FBroken clouds.8 mph89%30.22 "Hg10 mi
10:50 AM75 °FScattered clouds.6 mph89%30.21 "Hg5 mi
9:55 AM75 °FScattered clouds.6 mph89%30.20 "Hg5 mi
8:45 AM72 °FSunny.No wind94%30.20 "Hg7 mi
7:45 AM66 °FFog.No wind100%30.20 "Hg5 mi
6:45 AM64 °FFog.No wind100%30.18 "Hg5 mi
6:20 AM64 °FFog.No wind100%30.18 "Hg2 mi
6:00 AM63 °FFog.No wind100%30.17 "Hg2 mi
5:40 AM63 °FFog.No wind100%30.16 "Hg3 mi
5:20 AM64 °FFog.No wind100%30.16 "Hg5 mi
5:00 AM64 °FFog.No wind100%30.16 "Hg4 mi
4:40 AM64 °FFog.No wind100%30.15 "Hg4 mi
4:20 AM64 °FFog.No wind100%30.16 "Hg5 mi
4:00 AM64 °FPassing clouds.No wind100%30.16 "Hg7 mi
3:40 AM64 °FPassing clouds.No wind100%30.16 "Hg7 mi
3:20 AM64 °FClear.No wind100%30.16 "Hg7 mi
3:00 AM64 °FClear.No wind100%30.16 "Hg7 mi
2:40 AM64 °FClear.No wind100%30.16 "Hg7 mi
2:20 AM64 °FClear.No wind100%30.16 "Hg7 mi
2:00 AM64 °FPassing clouds.No wind100%30.16 "Hg7 mi
1:40 AM64 °FPassing clouds.No wind100%30.17 "Hg10 mi
1:20 AM64 °FPassing clouds.No wind100%30.16 "Hg10 mi
1:00 AM64 °FPassing clouds.No wind100%30.16 "Hg10 mi
12:40 AM64 °FPassing clouds.No wind100%30.16 "Hg10 mi
12:00 AM66 °FOvercast.No wind100%30.15 "Hg10 mi
11:40 PM
Jul 31
66 °FOvercast.No wind94%30.15 "Hg10 mi
11:20 PM66 °FPassing clouds.No wind94%30.15 "Hg10 mi
11:00 PM68 °FClear.No wind88%30.15 "Hg10 mi
10:40 PM66 °FClear.No wind94%30.15 "Hg10 mi
10:20 PM68 °FClear.No wind88%30.15 "Hg10 mi
10:00 PM70 °FPassing clouds.No wind83%30.15 "Hg10 mi
9:35 PM70 °FPassing clouds.No wind83%30.14 "Hg10 mi
9:15 PM73 °FMore clouds than sun.No wind69%30.13 "Hg10 mi
8:55 PM73 °FOvercast.No wind69%30.13 "Hg10 mi
5:45 PM86 °FWarm.6 mph46%30.11 "HgN/A
4:45 PM82 °FSunny.No wind55%30.11 "Hg10 mi
3:55 PM86 °FScattered clouds.7 mph46%30.11 "Hg10 mi
2:45 PM84 °FScattered clouds.7 mph45%30.12 "Hg10 mi
1:45 PM84 °FSunny.10 mph45%30.13 "Hg10 mi
12:55 PM82 °FScattered clouds.7 mph48%30.13 "Hg10 mi
Weather by CustomWeather, © 2014

See weather overviewHow to use our weather pages